sat.trackr.live / text

‹ back to catalog

HORIZONS-2

NORAD 32388 · 2007-063B

PAYLOAD ACTIVE UNKNOWN

§ Identity

Operator
Country
ITSO
Launch date
2007-12-21
Launch site
FRGUI
Launch vehicle
Mass (kg)
RCS (m²)
17.32

Purposes: comms

External: N2YO · Heavens-Above · Gunter

§ Orbital elements

Epoch: 2026-09-19T21:45:08.811072Z

Period
1,436.11 min
Inclination
2.8390°
Eccentricity
0.0001437
Mean motion
1.00271086 rev/d
Perigee alt
35,780.7 km
Apogee alt
35,792.9 km
Semi-major
42,164.9 km
B*
0.0000e+0
RAAN
79.3776°
Arg perigee
104.5394°
Mean anomaly
67.3973°
Rev number
6,876

§ Raw data

HORIZONS-21 32388U 07063B   26262.90635198 -.00000257  00000+0  00000+0 0  99922 32388   2.8390  79.3776 0001437 104.5394  67.3973  1.00271086 68765

JSON: /api/v1/satellites/32388 · /tle

For live sub-satellite position, see the globe view (requires WebGL).

§ Visibility from observer

Set your observer location to see the next 7 days of passes ≥ 10°. The values pass through the URL so the page stays shareable.

No JS? Fill the form by hand. The geolocation button needs JavaScript.